Regional Weather Roundup
Issued by NWS Newport/Morehead, NC

Current Version | Previous Version | Text Only | Print | Product List | Glossary On
Versions: 1 2 3 4 5 6 7 8 9 10 11 12 13 14 15 16 17 18 19 20 21 22 23 24 25 26 27 28 29 30 31 32 33 34 35 36 37 38 39 40 41 42 43 44 45 46 47 48 49 50
000 ASUS42 KMHX 250822 RWRMHX WEATHER ROUNDUP FOR EASTERN NORTH CAROLINA NATIONAL WEATHER SERVICE NEWPORT/MOREHEAD CITY NC 300 AM EST SUN JAN 25 2015 NOTE: "FAIR" INDICATES FEW OR NO CLOUDS BELOW 12,000 FEET WITH NO SIGNIFICANT WEATHER AND/OR OBSTRUCTIONS TO VISIBILITY NCZ015>017-031-032-045>047-102-103-250900- NORTH COAST CITY SKY/WX TMP DP RH WIND PRES REMARKS EDENTON CLEAR 38 30 72 W9 29.83R ELIZABETH CITY CLEAR 36 28 73 W10 29.81R KITTY HAWK SUNNY 41 31 68 W14G21 29.79S MANTEO CLEAR 41 30 65 W10G18 29.81S $$ NCZ045>047-081-094-103-104-250900- CENTRAL COAST CITY SKY/WX TMP DP RH WIND PRES REMARKS FRISCO CLEAR 43 31 62 NW15G31 29.83R SWANQUARTER NOT AVBL $$ NCZ095-097-098-100-101-250900- SOUTHERN COAST CITY SKY/WX TMP DP RH WIND PRES REMARKS BEAUFORT CLEAR 41 36 82 NW13 29.87R CEDAR ISLAND NOT AVBL JACKSONVILLE CLEAR 38 34 85 W6 29.88R PINEY ISLAND N/A N/A N/A N/A MISG 29.85R WILMINGTON CLEAR 39 37 92 W6 29.90R $$ NCZ011>013-027>030-043-044-078>080-089-090>093-098-250900- COASTAL PLAIN CITY SKY/WX TMP DP RH WIND PRES REMARKS AHOSKIE CLEAR 34 27 75 CALM 29.83R CLINTON CLEAR 32 32 100 CALM 29.89S ELIZABETHTOWN CLEAR 33 32 96 CALM 29.90R GOLDSBORO CLEAR 36 35 97 W6 29.86R GREENVILLE CLEAR 37 30 75 W3 29.89R HAVELOCK CLEAR 39 34 82 W8 29.88R KENANSVILLE CLEAR 32 32 100 W3 29.89S KINSTON CLEAR 33 31 90 W3 29.88R NEW BERN CLEAR 40 31 70 W6 29.88R RICHLANDS CLEAR 32 28 86 W3 29.89R ROCKY MOUNT CLEAR 33 27 78 SW5 29.86R WASHINGTON CLEAR 37 29 73 CALM 29.86R WHITEVILLE CLEAR 36 35 94 CALM 29.89R $$ AMZ130-135-150-152-154-156-158-170-250-252-270-ANZ085-086-088-633-658-670-250900- MARINE OBSERVATIONS STATION/POSITION TIME TEMP WIND PRES WAVE SWELL AIR SEA DIR/SP/G HT/PER HT/PER (UTC) (F) (DEG/KT/KT) (MB) (FT/S) (FT/S) CHESAPEAKE LIGHT 0800 40 290/ 19/ 21 1008.7 64 E VA BEACH 0800 45 53 300/ 19/ 25 1007.3 8/11 5/11 DUCK 0800 41 43 290/ 16/ 22 1008.2 2 E DUCK 0800 43 N/A 3/11 2/11 10 NE DUCK 0800 45 N/A 4/11 2/11 OREGON INLET 0800 41 47 290/ 10/ 15 1009.2 13E OREGON INLT 0800 46 N/A 5/11 2/11 HATTERAS CG 0800 45 54 300/ 19/ 23 1010.4 DIAMOND BUOY 0800 50 71 300/ 23/ 29 1009.2 8/11 5/11 17 S OCRACOKE NOT AVBL CAPE LOOKOUT 0800 45 300/ 15/ 19 1011.3 BEAUFORT LAB 0800 42 51 330/ 4/ 10 1010.5 27 SE WRIGHTSVLE NOT AVBL 5 SE WRIGHTSVLE 0800 46 51 300/ 12/ 14 1012.2 225 S CAPE HAT 0739 63 72 300/ 21/ 27 1011.4 12/11 8/11 41 SE CHARLESTON 0800 53 69 300/ 19/ 25 1012.7 7/ 7 2/10 $$

USA.gov is the U.S. government's official web portal to all federal, state and local government web resources and services.